Weather History for Columbus AFB, MS

Change the Weather History Date:

Tuesday, February 12, 2013

  Actual Average Record
Temperature  
Mean Temperature 44 °F -  
Max Temperature 48 °F 57 °F 67 °F (2009)
Min Temperature 40 °F 37 °F 19 °F (2012)
Degree Days  
Heating Degree Days 21    
Moisture  
Dew Point 43 °F    
Average Humidity 93    
Maximum Humidity 100    
Minimum Humidity 65    
Precipitation  
Precipitation 1.40 in - - ()
Sea Level Pressure  
Sea Level Pressure 29.92 in    
Wind  
Wind Speed 7 mph (ENE)    
Max Wind Speed 15 mph    
Max Gust Speed 21 mph    
Visibility 7 miles    
Events Rain , Thunderstorm    
Averages and records for this station are not official NWS values.
T = Trace of Precipitation, MM = Missing Value Source: NWS Daily Summary

Daily Weather History Graph

Daily Weather History Graph

Search for Another Location

Airport:

Trip Planner

Search our weather history database for the weather conditions in past years. The results will help you decide how hot, cold, wet, or windy it might be!

Date:

Astronomy

Feb. 12, 2013 Rise Set
Actual Time 6:40 AM CST 5:35 PM CST
Civil Twilight 6:15 AM CST 6:01 PM CST
Nautical Twilight 5:45 AM CST 6:30 PM CST
Astronomical Twilight 5:16 AM CST 6:59 PM CST
Moon 7:48 AM CST (2/12) 8:24 PM CST (2/12)
Length of Visible Light 11h 46m
Length of Day
10h 55m
Waxing Crescent, 7% of the Moon is Illuminated
Feb 12
Waxing Crescent
Feb 17
First Quarter
Feb 25
Full
Mar 4
Last Quarter
Mar 11
New

Hourly Weather History & Observations

Time (CST) Temp. Windchill Dew Point Humidity Pressure Visibility Wind Dir Wind Speed Gust Speed Precip Events Conditions
2:55 AM 45.9 °F 42.3 °F 44.1 °F 93% 30.11 in 10.0 mi NE 6.9 mph - N/A   Overcast
3:18 AM 46.4 °F 42.4 °F 42.8 °F 87% 30.18 in 10.0 mi West 8.1 mph - N/A Rain Light Rain
3:19 AM 46.4 °F 42.9 °F 42.8 °F 87% 30.17 in 10.0 mi West 6.9 mph - N/A Rain Light Rain
3:29 AM 46.4 °F - 42.8 °F 87% 30.15 in 10.0 mi Calm Calm - N/A   Mostly Cloudy
3:33 AM 46.4 °F - 42.8 °F 87% 30.15 in 10.0 mi Calm Calm - N/A Rain Light Rain
3:43 AM 46.4 °F - 44.6 °F 93% 30.15 in 10.0 mi Calm Calm - N/A   Overcast
3:44 AM 44.6 °F - 44.6 °F 100% 30.14 in 10.0 mi Calm Calm - N/A   Mostly Cloudy
3:58 AM 45.3 °F - 43.7 °F 94% 30.15 in 10.0 mi NE 1.2 mph - 0.00 in   Mostly Cloudy
4:58 AM 43.3 °F 39.9 °F 41.9 °F 95% 30.12 in 10.0 mi NNE 5.8 mph - N/A   Scattered Clouds
5:58 AM 40.3 °F 36.3 °F 39.9 °F 99% 30.10 in 10.0 mi ENE 5.8 mph - N/A   Partly Cloudy
6:58 AM 41.7 °F 38.0 °F 39.0 °F 90% 30.11 in 10.0 mi NE 5.8 mph - N/A   Clear
7:58 AM 45.3 °F 41.1 °F 37.8 °F 75% 30.07 in 10.0 mi ENE 8.1 mph - N/A   Scattered Clouds
8:58 AM 47.7 °F - 36.3 °F 65% 30.07 in 10.0 mi East 10.4 mph - N/A   Scattered Clouds
9:58 AM 48.0 °F - 36.9 °F 65% 30.07 in 10.0 mi East 4.6 mph - N/A   Partly Cloudy
10:28 AM 48.2 °F - 37.4 °F 66% 30.08 in 10.0 mi East 4.6 mph - N/A   Mostly Cloudy
10:58 AM 48.4 °F - 39.0 °F 70% 30.07 in 10.0 mi SE 5.8 mph - N/A   Overcast
11:11 AM 48.2 °F - 39.2 °F 71% 30.05 in 10.0 mi ESE 8.1 mph - N/A Rain Light Rain
11:58 AM 46.8 °F - 40.3 °F 78% 29.99 in 10.0 mi East 12.7 mph - 0.02 in Rain Light Rain
12:03 PM 46.4 °F 40.1 °F 39.2 °F 76% 29.98 in 10.0 mi East 15.0 mph - N/A Rain Light Rain
12:05 PM 46.4 °F 40.7 °F 39.2 °F 76% 29.99 in 10.0 mi East 12.7 mph - N/A   Mostly Cloudy
12:10 PM 46.4 °F 42.9 °F 39.2 °F 76% 30.03 in 10.0 mi Variable 6.9 mph 20.7 mph N/A   Mostly Cloudy
12:20 PM 46.4 °F 42.9 °F 41.0 °F 81% 30.06 in 7.0 mi SSE 6.9 mph - N/A Rain Rain
12:30 PM 46.4 °F 42.9 °F 41.0 °F 81% 30.06 in 5.0 mi SSE 6.9 mph - N/A Rain Light Rain
12:58 PM 46.0 °F 41.0 °F 42.4 °F 87% 29.99 in 5.0 mi East 10.4 mph - 0.07 in Rain Rain
1:03 PM 44.6 °F 40.7 °F 42.8 °F 93% 30.00 in 3.0 mi NNE 6.9 mph - N/A Rain , Thunderstorm Rain
1:08 PM 44.6 °F 40.2 °F 42.8 °F 93% 29.99 in 5.0 mi NE 8.1 mph - N/A Rain , Thunderstorm Rain
1:13 PM 44.6 °F 39.2 °F 42.8 °F 93% 29.96 in 8.0 mi NE 10.4 mph - N/A Rain , Thunderstorm Rain
1:26 PM 44.6 °F 41.4 °F 42.8 °F 93% 29.99 in 9.0 mi ESE 5.8 mph - N/A Rain Light Rain
1:28 PM 44.6 °F 40.7 °F 42.8 °F 93% 29.97 in 9.0 mi ESE 6.9 mph - N/A Rain Light Rain
1:46 PM 44.6 °F 42.2 °F 42.8 °F 93% 29.97 in 5.0 mi ESE 4.6 mph - N/A Rain , Thunderstorm Heavy Thunderstorms and Rain
1:58 PM 44.8 °F 39.0 °F 42.4 °F 91% 29.94 in 6.0 mi East 11.5 mph - 0.15 in Rain , Thunderstorm Heavy Thunderstorms and Rain
2:01 PM 44.6 °F 39.7 °F 42.8 °F 93% 29.94 in 6.0 mi East 9.2 mph - N/A Rain Light Rain
2:38 PM 44.6 °F 37.8 °F 42.8 °F 93% 29.91 in 5.0 mi ENE 15.0 mph - N/A Rain Rain
2:41 PM 44.6 °F 39.2 °F 42.8 °F 93% 29.91 in 4.0 mi ENE 10.4 mph - N/A Rain Heavy Rain
2:49 PM 42.8 °F 37.5 °F 41.0 °F 93% 29.91 in 4.0 mi North 9.2 mph - N/A Rain Heavy Rain
2:53 PM 42.8 °F 38.0 °F 42.8 °F 100% 29.91 in 4.0 mi NE 8.1 mph - N/A Rain Heavy Rain
2:58 PM 42.8 °F 37.0 °F 42.8 °F 100% 29.89 in 4.0 mi ENE 10.4 mph - N/A Rain , Thunderstorm Heavy Thunderstorms and Rain
2:59 PM 43.5 °F 37.9 °F 41.9 °F 94% 29.90 in 4.0 mi ENE 10.4 mph - 0.23 in Rain , Thunderstorm Heavy Thunderstorms and Rain
3:04 PM 42.8 °F 38.0 °F 42.8 °F 100% 29.89 in 5.0 mi NNE 8.1 mph - N/A Rain , Thunderstorm Thunderstorms and Rain
3:13 PM 44.6 °F 40.7 °F 42.8 °F 93% 29.93 in 4.0 mi ESE 6.9 mph - N/A Rain Light Rain
3:18 PM 44.6 °F 38.8 °F 42.8 °F 93% 29.87 in 3.0 mi NE 11.5 mph - N/A Rain Rain
3:23 PM 42.8 °F 41.1 °F 42.8 °F 100% 29.90 in 2.5 mi Variable 3.5 mph - N/A Rain , Thunderstorm Heavy Thunderstorms and Rain
3:28 PM 42.8 °F 38.0 °F 42.8 °F 100% 29.92 in 3.0 mi SE 8.1 mph - N/A Rain , Thunderstorm Light Thunderstorms and Rain
3:33 PM 42.8 °F 37.5 °F 42.8 °F 100% 29.86 in 4.0 mi East 9.2 mph - N/A Rain , Thunderstorm Thunderstorms and Rain
3:38 PM 44.6 °F 40.7 °F 42.8 °F 93% 29.89 in 4.0 mi East 6.9 mph - N/A Rain Light Rain
3:43 PM 42.8 °F - 42.8 °F 100% 29.92 in 5.0 mi Variable 2.3 mph - N/A Rain Light Rain
3:48 PM 44.6 °F 41.4 °F 42.8 °F 93% 29.91 in 6.0 mi ENE 5.8 mph - N/A Rain Light Rain
3:53 PM 44.6 °F 41.4 °F 42.8 °F 93% 29.91 in 4.0 mi NE 5.8 mph - N/A Rain Rain
3:58 PM 43.9 °F 40.5 °F 42.6 °F 95% 29.92 in 4.0 mi NE 5.8 mph - 0.20 in Rain Rain
4:03 PM 44.6 °F 40.7 °F 42.8 °F 93% 29.91 in 5.0 mi ENE 6.9 mph - N/A Rain Light Rain
4:13 PM 44.6 °F 40.2 °F 42.8 °F 93% 29.90 in 4.0 mi ENE 8.1 mph - N/A Rain Light Rain
4:18 PM 44.6 °F 40.2 °F 42.8 °F 93% 29.89 in 6.0 mi ENE 8.1 mph - N/A Rain Light Rain
4:24 PM 44.6 °F 39.2 °F 42.8 °F 93% 29.89 in 5.0 mi ENE 10.4 mph - N/A Rain , Thunderstorm Light Thunderstorms and Rain
4:29 PM 44.6 °F 39.7 °F 42.8 °F 93% 29.88 in 3.0 mi East 9.2 mph - N/A Rain , Thunderstorm Heavy Thunderstorms and Rain
4:39 PM 44.6 °F 40.2 °F 42.8 °F 93% 29.90 in 4.0 mi East 8.1 mph - N/A Rain Light Rain
4:40 PM 44.6 °F 39.2 °F 42.8 °F 93% 29.88 in 4.0 mi East 10.4 mph - N/A Rain , Thunderstorm Light Thunderstorms and Rain
4:45 PM 44.6 °F 37.8 °F 42.8 °F 93% 29.87 in 3.0 mi ESE 15.0 mph - N/A Rain , Thunderstorm Light Thunderstorms and Rain
4:46 PM 44.6 °F 38.4 °F 42.8 °F 93% 29.87 in 2.0 mi East 12.7 mph - N/A Rain , Thunderstorm Heavy Thunderstorms and Rain
4:51 PM 44.6 °F 39.7 °F 42.8 °F 93% 29.87 in 1.2 mi NE 9.2 mph - N/A Rain , Thunderstorm Heavy Thunderstorms and Rain
4:55 PM 42.8 °F 37.0 °F 42.8 °F 100% 29.88 in 1.5 mi ENE 10.4 mph - N/A Rain Light Rain
4:58 PM 43.7 °F 39.1 °F 43.2 °F 98% 29.89 in 1.8 mi NE 8.1 mph - 0.21 in Rain Light Rain
5:03 PM 44.6 °F 40.2 °F 42.8 °F 93% 29.87 in 7.0 mi NE 8.1 mph - N/A Rain Light Rain
5:13 PM 42.8 °F 37.5 °F 42.8 °F 100% 29.87 in 10.0 mi NE 9.2 mph - N/A Rain Light Rain
5:23 PM 42.8 °F 38.0 °F 42.8 °F 100% 29.86 in 10.0 mi ENE 8.1 mph - N/A   Overcast
5:26 PM 42.8 °F 38.6 °F 42.8 °F 100% 29.86 in 10.0 mi ENE 6.9 mph - N/A   Light Drizzle
5:35 PM 42.8 °F 36.2 °F 42.8 °F 100% 29.81 in 10.0 mi ENE 12.7 mph - N/A   Overcast
5:41 PM 42.8 °F 37.5 °F 42.8 °F 100% 29.84 in 10.0 mi ENE 9.2 mph - N/A Thunderstorm Light Drizzle
5:54 PM 42.8 °F 38.0 °F 42.8 °F 100% 29.90 in 8.0 mi NW 8.1 mph - N/A Rain , Thunderstorm Light Thunderstorms and Rain
5:58 PM 43.5 °F 39.4 °F 43.0 °F 98% 29.92 in 4.0 mi WNW 6.9 mph - 0.03 in Rain , Thunderstorm Heavy Thunderstorms and Rain
6:03 PM 42.8 °F 38.6 °F 42.8 °F 100% 29.91 in 0.8 mi North 6.9 mph - N/A Rain , Thunderstorm Heavy Thunderstorms and Rain
6:08 PM 42.8 °F 38.0 °F 42.8 °F 100% 29.88 in 1.0 mi NE 8.1 mph - N/A Rain , Thunderstorm Heavy Thunderstorms and Rain
6:11 PM 42.8 °F 38.0 °F 42.8 °F 100% 29.87 in 2.5 mi ENE 8.1 mph - N/A Rain Light Rain
6:16 PM 42.8 °F 37.5 °F 42.8 °F 100% 29.86 in 6.0 mi ENE 9.2 mph - N/A Rain Light Rain
6:21 PM 42.8 °F 37.0 °F 42.8 °F 100% 29.85 in 8.0 mi ENE 10.4 mph - N/A Rain Light Rain
6:26 PM 42.8 °F 37.0 °F 42.8 °F 100% 29.84 in 10.0 mi East 10.4 mph - N/A   Light Drizzle
6:51 PM 42.8 °F 41.1 °F 42.8 °F 100% 29.86 in 7.0 mi Variable 3.5 mph - N/A Rain Light Rain
6:58 PM 43.7 °F 42.1 °F 43.3 °F 99% 29.86 in 6.0 mi East 3.5 mph - 0.36 in Rain Light Rain
6:59 PM 44.6 °F 43.1 °F 42.8 °F 93% 29.86 in 4.0 mi ENE 3.5 mph - N/A Rain Light Rain
7:04 PM 44.6 °F - 42.8 °F 93% 29.87 in 3.0 mi Variable 1.2 mph - N/A Rain Rain
7:09 PM 44.6 °F 42.2 °F 42.8 °F 93% 29.87 in 4.0 mi East 4.6 mph - N/A Rain Rain
7:14 PM 44.6 °F 40.7 °F 42.8 °F 93% 29.85 in 5.0 mi East 6.9 mph - N/A Rain Rain
7:24 PM 44.6 °F 41.4 °F 42.8 °F 93% 29.86 in 8.0 mi ENE 5.8 mph - N/A Rain Light Rain
7:37 PM 44.6 °F 43.1 °F 44.6 °F 100% 29.86 in 10.0 mi NE 3.5 mph - N/A   Overcast
7:46 PM 44.6 °F 40.7 °F 44.6 °F 100% 29.85 in 10.0 mi ENE 6.9 mph - N/A Rain Light Rain
7:48 PM 44.6 °F 40.7 °F 44.6 °F 100% 29.85 in 10.0 mi ENE 6.9 mph - N/A   Light Drizzle
7:58 PM 44.1 °F 40.8 °F 43.7 °F 99% 29.86 in 10.0 mi ENE 5.8 mph - 0.12 in   Light Drizzle
8:08 PM 44.6 °F 40.7 °F 44.6 °F 100% 29.84 in 10.0 mi ENE 6.9 mph - N/A   Overcast
8:43 PM 44.6 °F 40.7 °F 42.8 °F 93% 29.82 in 10.0 mi East 6.9 mph - N/A   Overcast
8:56 PM 44.6 °F 40.7 °F 42.8 °F 93% 29.81 in 10.0 mi East 6.9 mph - N/A   Overcast
8:59 PM 44.6 °F 40.2 °F 42.8 °F 93% 29.82 in 10.0 mi East 8.1 mph - 0.00 in   Overcast
9:21 PM 44.6 °F 40.7 °F 42.8 °F 93% 29.82 in 10.0 mi East 6.9 mph - N/A   Overcast
9:23 PM 44.6 °F 40.7 °F 42.8 °F 93% 29.82 in 10.0 mi East 6.9 mph - N/A   Overcast
9:28 PM 44.6 °F 42.2 °F 42.8 °F 93% 29.82 in 9.0 mi East 4.6 mph - N/A   Overcast
9:30 PM 44.6 °F 43.1 °F 42.8 °F 93% 29.82 in 8.0 mi East 3.5 mph - N/A   Overcast
9:35 PM 44.6 °F 43.1 °F 42.8 °F 93% 29.82 in 7.0 mi ENE 3.5 mph - N/A   Light Drizzle
9:58 PM 43.7 °F 41.1 °F 43.2 °F 98% 29.81 in 6.0 mi East 4.6 mph - 0.00 in   Light Drizzle
9:59 PM 44.6 °F 42.2 °F 42.8 °F 93% 29.80 in 6.0 mi East 4.6 mph - N/A   Overcast
10:17 PM 42.8 °F 41.1 °F 42.8 °F 100% 29.80 in 6.0 mi ENE 3.5 mph - N/A   Light Drizzle
10:30 PM 42.8 °F - 42.8 °F 100% 29.81 in 6.0 mi Calm Calm - N/A   Overcast
10:35 PM 44.6 °F - 42.8 °F 93% 29.80 in 6.0 mi NE 1.2 mph - N/A   Overcast
10:40 PM 42.8 °F - 42.8 °F 100% 29.80 in 6.0 mi East 2.3 mph - N/A   Overcast
10:58 PM 43.7 °F - 43.3 °F 99% 29.81 in 6.0 mi North - - 0.00 in   Overcast
11:03 PM 42.8 °F - 42.8 °F 100% 29.80 in 5.0 mi East 1.2 mph - N/A   Overcast
11:18 PM 44.6 °F - 44.6 °F 100% 29.80 in 4.0 mi Calm Calm - N/A   Overcast
11:23 PM 44.6 °F - 44.6 °F 100% 29.80 in 4.0 mi SSE 2.3 mph - N/A   Overcast
11:33 PM 44.6 °F - 44.6 °F 100% 29.80 in 4.0 mi SE 1.2 mph - N/A   Overcast
11:38 PM 44.6 °F - 44.6 °F 100% 29.79 in 4.0 mi Calm Calm - N/A   Overcast
11:48 PM 44.6 °F - 44.6 °F 100% 29.79 in 4.0 mi Calm Calm - N/A   Overcast
11:58 PM 44.1 °F - 44.1 °F 100% 29.80 in 4.0 mi Calm Calm - 0.01 in   Overcast